Zurück zum Katalog

COSMOS 1818 COOLANT

AktivLEO
NORAD 50792·DEBRIS·🇷🇺 Russia

Gestartet Feb 1, 1987 von Baikonur Cosmodrome

Loading…

Nächste Überflüge (nächste 24 Stunden)

TLE

AktuellSource: Space-Track

Epoche: Sep 13, 2026, 09:13 UTC

1 50792U 87011BH  26256.38429567  .00000403  00000-0  16162-3 0  9991
2 50792  65.0097 289.6828 0021481 276.5014  96.8214 14.39352148113517

Verfolge COSMOS 1818 COOLANT in Echtzeit mit AllMySat

Download on the App Store